[[{"header":{"parameterUnit":"m.s-1","parameterCategory":2,"la1":30.2992,"la2":30.254,"lo1":-89.0895,"lo2":-89.0443,"dy":0.0025,"dx":0.0025,"nx":19,"ny":19,"refTime":"2026-03-29T09:00:00:Z","depth":"0","parameterNumber":2,"parameterNumberName":"U-component_of_CURRENTS"},"data":[0,0,0,-0.144,-0.144,-0.1436,-0.1436,-0.1341,-0.134,0,0,0,0,0,0,0,0,0,0,0,-0.1432,-0.1432,-0.144,-0.144,-0.1436,-0.1436,-0.1341,-0.134,0,0,0,0,0,0,0,0,0,0,0,-0.1432,-0.1432,-0.1432,-0.144,-0.1436,-0.1436,-0.1341,-0.1363,0,0,0,0,0,0,0,0,0,0,-0.1377,-0.139,-0.1432,-0.1432,-0.144,-0.1436,-0.1436,-0.1365,-0.1362,-0.1321,0,-0.1326,0,-0.1338,-0.1333,-0.1333,0,0,0,-0.1427,-0.1393,-0.1394,-0.1432,-0.144,-0.1436,-0.1434,-0.1364,-0.136,-0.1316,-0.1325,-0.1322,-0.1337,-0.1332,-0.1332,-0.1333,-0.1334,0,0,-0.1427,-0.1425,-0.1397,-0.1392,-0.1444,-0.1434,-0.1434,-0.1363,-0.1357,-0.1325,-0.132,-0.1335,-0.1331,-0.1331,-0.1333,-0.1334,0,0,0,-0.1436,-0.1426,-0.143,-0.1394,-0.1405,-0.1435,-0.1434,-0.136,-0.1362,-0.132,-0.1334,-0.1331,-0.133,-0.1332,-0.1333,-0.1461,0,0,0,-0.1436,-0.1433,-0.143,-0.1428,-0.1407,-0.1396,-0.1433,-0.1367,-0.136,-0.1334,-0.1331,-0.1329,-0.1331,-0.1332,-0.1455,-0.1526,0,0,0,-0.1432,-0.1432,-0.1434,-0.1428,-0.1434,-0.1398,-0.1396,-0.1366,-0.1368,-0.1332,-0.1328,-0.133,-0.1332,-0.1451,-0.1517,-0.157,0,0,0,-0.1427,-0.1463,-0.1434,-0.1477,-0.1434,-0.1472,-0.1397,-0.1402,-0.138,-0.133,-0.1331,-0.1333,-0.1449,-0.1511,-0.1565,-0.1441,-0.1455,0,0,-0.148,-0.1469,-0.1498,-0.1473,-0.1532,-0.1471,-0.1535,-0.1466,-0.1395,-0.1343,-0.1343,-0.1457,-0.1516,-0.1569,-0.1553,-0.1564,0,0,0,-0.1521,-0.1538,-0.155,-0.1573,-0.158,-0.161,-0.1548,-0.153,-0.1498,-0.1394,-0.1461,-0.1495,-0.1523,-0.1437,-0.1447,-0.1409,-0.1342,-0.1342,-0.1342,-0.1574,-0.1591,-0.165,-0.1673,-0.1694,-0.1698,-0.1725,-0.1686,-0.1581,-0.1597,-0.1601,-0.1735,-0.1645,-0.165,-0.1615,-0.1595,-0.1596,-0.1596,-0.1596,-0.1661,-0.1684,-0.1727,-0.1787,-0.1816,-0.1852,-0.1874,-0.1836,-0.1845,-0.1739,-0.1759,-0.158,-0.1668,-0.1626,-0.1605,-0.1603,-0.1602,-0.1601,-0.1601,-0.1673,-0.1687,-0.1741,-0.1825,-0.1906,-0.1932,-0.1987,-0.1995,-0.1962,-0.2,-0.1835,-0.183,-0.1788,-0.1971,-0.1972,-0.1972,-0.1973,-0.1973,-0.1974,-0.1639,-0.1701,-0.1723,-0.1848,-0.1874,-0.1948,-0.2033,-0.2042,-0.2021,-0.1977,-0.1974,-0.1827,-0.1848,-0.1828,-0.1983,-0.1981,-0.198,-0.1979,-0.1978,-0.1564,-0.1599,-0.1636,-0.1667,-0.1763,-0.1802,-0.1937,-0.1966,-0.2014,-0.1988,-0.1897,-0.1953,-0.1896,-0.1884,-0.1864,-0.2019,-0.2019,-0.2019,-0.2019,-0.1464,-0.1507,-0.1492,-0.1512,-0.1582,-0.17,-0.1674,-0.1746,-0.1823,-0.1827,-0.1899,-0.178,-0.178,-0.171,-0.1703,-0.1676,-0.1781,-0.178,-0.178,-0.1347,-0.1391,-0.1327,-0.1409,-0.1476,-0.1544,-0.1495,-0.1509,-0.165,-0.1774,-0.1887,-0.1897,-0.1726,-0.1728,-0.1611,-0.1603,-0.1555,0,0]},{"header":{"parameterUnit":"m.s-1","parameterCategory":2,"la1":30.2992,"la2":30.254,"lo1":-89.0895,"lo2":-89.0443,"dy":0.0025,"dx":0.0025,"nx":19,"ny":19,"refTime":"2026-03-29T09:00:00:Z","depth":"0","parameterNumber":3,"parameterNumberName":"V-component_of_CURRENTS"},"data":[0,0,0,-0.017,-0.0169,-0.0101,-0.01,0.0011,0.0012,0,0,0,0,0,0,0,0,0,0,0,-0.0194,-0.0193,-0.017,-0.0169,-0.0101,-0.01,0.0011,0.0012,0,0,0,0,0,0,0,0,0,0,0,-0.0194,-0.0194,-0.0193,-0.0169,-0.0101,-0.01,0.0011,-0.0043,0,0,0,0,0,0,0,0,0,0,-0.0111,-0.0143,-0.0194,-0.0193,-0.0168,-0.0101,-0.01,-0.0046,-0.004,-0.0016,0,-0.0014,0,-0.0002,0.0019,0.002,0,0,0,-0.0156,-0.0148,-0.013,-0.0193,-0.0168,-0.0101,-0.0128,-0.0043,-0.0036,-0.0008,-0.0012,-0.0008,-0.0001,0.002,0.002,0.0107,0.0107,0,0,-0.016,-0.0177,-0.0135,-0.0126,-0.016,-0.013,-0.0126,-0.0039,-0.0035,-0.0012,-0.0005,0.0001,0.0021,0.0021,0.0107,0.0107,0,0,0,-0.0179,-0.0179,-0.0164,-0.0131,-0.0123,-0.0129,-0.0124,-0.0039,-0.0034,-0.0004,0.0003,0.0021,0.0023,0.0107,0.0107,0.0066,0,0,0,-0.0181,-0.0191,-0.0166,-0.0174,-0.0125,-0.0084,-0.0126,-0.004,-0.003,0.0002,0.0021,0.0024,0.0106,0.0107,0.0067,0.0038,0,0,0,-0.0195,-0.0193,-0.0188,-0.0175,-0.0151,-0.0085,-0.0075,-0.0037,-0.0026,0.002,0.0024,0.0106,0.0107,0.0068,0.0039,0.01,0,0,0,-0.0209,-0.0235,-0.0189,-0.0212,-0.0152,-0.013,-0.0075,-0.0047,-0.0014,0.0022,0.0106,0.0107,0.0068,0.004,0.01,0.0153,0.0158,0,0,-0.0258,-0.0242,-0.0256,-0.0214,-0.0219,-0.0138,-0.0115,-0.0047,0.0005,0.0081,0.0083,0.0067,0.0039,0.01,0.0177,0.0181,0,0,0,-0.0282,-0.0295,-0.0288,-0.0274,-0.0232,-0.0168,-0.0098,-0.0046,0.0035,0.0025,0.0087,0.0071,0.0111,0.0143,0.0147,0.0317,0.0109,0.0109,0.0109,-0.036,-0.034,-0.036,-0.0323,-0.0287,-0.0186,-0.0127,-0.0034,0.0011,0.005,0.0053,0.0088,0.0121,0.0124,0.0298,0.0077,0.0077,0.0077,0.0077,-0.0443,-0.0461,-0.0407,-0.0423,-0.0331,-0.0286,-0.0138,-0.0079,0.0034,0.0049,0.0092,0.0116,0.0126,0.031,0.0075,0.0075,0.0075,0.0075,0.0076,-0.0505,-0.0514,-0.0508,-0.0496,-0.0442,-0.0336,-0.0244,-0.0134,-0.001,0.0024,0.0128,0.0129,0.0283,0.0071,0.0071,0.0071,0.0071,0.0072,0.0072,-0.0575,-0.0569,-0.0584,-0.0565,-0.0545,-0.0472,-0.0298,-0.0192,-0.0003,0.0091,0.0093,0.0324,0.0087,0.0078,0.0074,0.0073,0.0073,0.0073,0.0073,-0.0659,-0.0631,-0.0669,-0.0663,-0.062,-0.0563,-0.0403,-0.014,0.0004,0.0115,0.0406,0.0159,0.0189,0.0188,0.0182,0.0206,0.0206,0.0206,0.0206,-0.069,-0.0688,-0.0712,-0.0715,-0.069,-0.0597,-0.0407,-0.012,0.0289,0.0501,0.0557,0.0581,0.0568,0.0622,0.0611,0.0615,0.0748,0.0749,0.075,-0.071,-0.0721,-0.0738,-0.0742,-0.0719,-0.0623,-0.0435,-0.0064,0.0533,0.0788,0.0787,0.0764,0.0812,0.0778,0.087,0.084,0.0849,0,0]}],[{"header":{"parameterUnit":"m.s-1","parameterCategory":2,"la1":30.2992,"la2":30.254,"lo1":-89.0895,"lo2":-89.0443,"dy":0.0025,"dx":0.0025,"nx":19,"ny":19,"refTime":"2026-03-29T09:00:00:Z","depth":"2","parameterNumber":2,"parameterNumberName":"U-component_of_CURRENTS"},"data":[0,0,0,-0.1374,-0.1375,-0.1372,-0.1372,-0.127,-0.1269,0,0,0,0,0,0,0,0,0,0,0,-0.1367,-0.1367,-0.1374,-0.1375,-0.1372,-0.1372,-0.127,-0.1269,0,0,0,0,0,0,0,0,0,0,0,-0.1366,-0.1367,-0.1367,-0.1375,-0.1372,-0.1372,-0.1271,-0.1293,0,0,0,0,0,0,0,0,0,0,-0.1306,-0.1321,-0.1367,-0.1367,-0.1375,-0.1372,-0.1372,-0.1295,-0.1292,-0.1248,0,-0.1254,0,-0.1267,-0.1261,-0.1261,0,0,0,-0.136,-0.1324,-0.1326,-0.1367,-0.1375,-0.1372,-0.1369,-0.1294,-0.129,-0.1243,-0.1253,-0.125,-0.1265,-0.1261,-0.126,-0.1256,-0.1257,0,0,-0.136,-0.1359,-0.1329,-0.1323,-0.1381,-0.1369,-0.1369,-0.1293,-0.1287,-0.1253,-0.1249,-0.1264,-0.126,-0.1259,-0.1255,-0.1256,0,0,0,-0.137,-0.1359,-0.1364,-0.1327,-0.1339,-0.137,-0.1369,-0.129,-0.1293,-0.1248,-0.1263,-0.1259,-0.1258,-0.1254,-0.1256,-0.1382,0,0,0,-0.137,-0.1367,-0.1364,-0.1363,-0.1341,-0.1329,-0.1369,-0.1298,-0.1291,-0.1263,-0.1259,-0.1257,-0.1253,-0.1255,-0.1377,-0.1445,0,0,0,-0.1366,-0.1366,-0.1369,-0.1363,-0.137,-0.1331,-0.1329,-0.1297,-0.13,-0.1261,-0.1256,-0.1253,-0.1255,-0.1372,-0.1436,-0.1478,0,0,0,-0.136,-0.1398,-0.1369,-0.1414,-0.1371,-0.1406,-0.133,-0.1334,-0.1311,-0.1259,-0.1254,-0.1255,-0.1371,-0.1431,-0.1473,-0.1329,-0.1341,0,0,-0.1414,-0.1404,-0.1433,-0.1409,-0.1467,-0.1405,-0.1466,-0.1395,-0.1323,-0.1266,-0.1267,-0.1379,-0.1436,-0.1477,-0.1441,-0.1449,0,0,0,-0.1455,-0.1473,-0.1485,-0.1509,-0.1514,-0.1541,-0.1478,-0.1458,-0.1424,-0.1321,-0.1382,-0.1415,-0.1436,-0.1339,-0.1346,-0.1265,-0.1264,-0.1264,-0.1264,-0.151,-0.1527,-0.1585,-0.1607,-0.1626,-0.1627,-0.1651,-0.161,-0.1505,-0.1521,-0.1521,-0.1645,-0.1543,-0.1547,-0.1515,-0.1516,-0.1516,-0.1516,-0.1517,-0.1597,-0.1617,-0.166,-0.1719,-0.1745,-0.1776,-0.1794,-0.1757,-0.1757,-0.1657,-0.167,-0.1481,-0.1562,-0.1527,-0.1525,-0.1523,-0.1522,-0.1522,-0.1521,-0.1606,-0.1617,-0.1672,-0.1749,-0.1825,-0.1848,-0.1892,-0.1902,-0.1871,-0.1905,-0.172,-0.1715,-0.1712,-0.187,-0.1871,-0.1871,-0.1872,-0.1872,-0.1872,-0.1563,-0.1627,-0.1642,-0.1758,-0.1778,-0.1842,-0.1924,-0.1927,-0.1899,-0.1856,-0.1853,-0.1763,-0.1752,-0.1731,-0.188,-0.1879,-0.1878,-0.1877,-0.1877,-0.1487,-0.1512,-0.1541,-0.1564,-0.1644,-0.1664,-0.1798,-0.1815,-0.1856,-0.1824,-0.1818,-0.1817,-0.1755,-0.1745,-0.1723,-0.1862,-0.1862,-0.1862,-0.1862,-0.1381,-0.1418,-0.1394,-0.1402,-0.1449,-0.1552,-0.149,-0.1517,-0.1617,-0.1625,-0.1635,-0.1514,-0.1519,-0.1437,-0.1434,-0.1403,-0.1459,-0.1458,-0.1458,-0.1268,-0.1304,-0.1236,-0.1299,-0.1345,-0.1386,-0.1288,-0.1191,-0.1254,-0.1442,-0.1573,-0.1834,-0.1676,-0.1677,-0.1562,-0.1554,-0.1507,0,0]},{"header":{"parameterUnit":"m.s-1","parameterCategory":2,"la1":30.2992,"la2":30.254,"lo1":-89.0895,"lo2":-89.0443,"dy":0.0025,"dx":0.0025,"nx":19,"ny":19,"refTime":"2026-03-29T09:00:00:Z","depth":"2","parameterNumber":3,"parameterNumberName":"V-component_of_CURRENTS"},"data":[0,0,0,-0.023,-0.0229,-0.016,-0.016,-0.0048,-0.0047,0,0,0,0,0,0,0,0,0,0,0,-0.0253,-0.0253,-0.023,-0.0229,-0.016,-0.016,-0.0048,-0.0047,0,0,0,0,0,0,0,0,0,0,0,-0.0253,-0.0253,-0.0253,-0.0228,-0.016,-0.016,-0.0049,-0.0103,0,0,0,0,0,0,0,0,0,0,-0.0171,-0.0203,-0.0253,-0.0253,-0.0228,-0.0161,-0.016,-0.0106,-0.01,-0.0076,0,-0.0073,0,-0.0062,-0.004,-0.004,0,0,0,-0.0216,-0.0208,-0.019,-0.0253,-0.0228,-0.0161,-0.0188,-0.0103,-0.0096,-0.0068,-0.0072,-0.0067,-0.006,-0.004,-0.0039,0.0052,0.0053,0,0,-0.022,-0.0236,-0.0195,-0.0186,-0.0219,-0.019,-0.0186,-0.0099,-0.0094,-0.0071,-0.0065,-0.0058,-0.0039,-0.0038,0.0052,0.0052,0,0,0,-0.0239,-0.0239,-0.0223,-0.0191,-0.0182,-0.0188,-0.0183,-0.0098,-0.0093,-0.0064,-0.0057,-0.0038,-0.0037,0.0052,0.0052,0.0014,0,0,0,-0.0241,-0.0251,-0.0225,-0.0233,-0.0185,-0.0143,-0.0185,-0.0099,-0.0089,-0.0058,-0.0038,-0.0036,0.0052,0.0052,0.0014,-0.0019,0,0,0,-0.0255,-0.0252,-0.0247,-0.0234,-0.021,-0.0145,-0.0134,-0.0097,-0.0085,-0.004,-0.0036,0.0051,0.0052,0.0015,-0.0017,0.0033,0,0,0,-0.0268,-0.0292,-0.0248,-0.0268,-0.0211,-0.0186,-0.0135,-0.0105,-0.0072,-0.0038,0.0052,0.0052,0.0015,-0.0016,0.0033,0.0061,0.0064,0,0,-0.0314,-0.0298,-0.0311,-0.027,-0.0271,-0.0194,-0.0167,-0.0102,-0.0051,0.0026,0.0029,0.0014,-0.0017,0.0033,0.0093,0.0094,0,0,0,-0.0335,-0.0346,-0.0338,-0.0323,-0.028,-0.0218,-0.0149,-0.0097,-0.0017,-0.003,0.0036,0.0018,0.0051,0.0069,0.007,0.0055,0.0055,0.0055,0.0055,-0.0407,-0.0387,-0.0403,-0.0365,-0.0329,-0.023,-0.0172,-0.0081,-0.0036,0.0003,0.0003,0.0034,0.0052,0.0053,0.0032,0.0032,0.0032,0.0032,0.0032,-0.0483,-0.0498,-0.0446,-0.0457,-0.0368,-0.0322,-0.0179,-0.0122,-0.0015,0.0004,0.0039,0.0046,0.0052,0.0029,0.003,0.003,0.003,0.003,0.0031,-0.0538,-0.0545,-0.0539,-0.0525,-0.0473,-0.0371,-0.0289,-0.0181,-0.006,-0.003,0.0048,0.0049,0.0015,0.001,0.001,0.001,0.001,0.001,0.001,-0.0601,-0.0594,-0.0609,-0.059,-0.0573,-0.0507,-0.0347,-0.0253,-0.0083,0.0007,0.0009,0.0027,0.0028,0.0016,0.0012,0.0011,0.0011,0.0011,0.0011,-0.0678,-0.065,-0.0689,-0.0686,-0.0653,-0.061,-0.0463,-0.0235,-0.0105,-0.0009,0.0058,0.0057,0.0081,0.0081,0.0072,0.0083,0.0083,0.0083,0.0083,-0.0708,-0.0705,-0.0734,-0.0744,-0.073,-0.0651,-0.0501,-0.0267,-0.0036,0.0065,0.0065,0.0057,0.0056,0.0078,0.0078,0.0069,0.0078,0.0078,0.0078,-0.0732,-0.0743,-0.0766,-0.0774,-0.0764,-0.0688,-0.0544,-0.0263,0.0021,0.0074,0.0027,0.0089,0.0079,0.0076,0.0113,0.0111,0.0097,0,0]}],[{"header":{"parameterUnit":"m.s-1","parameterCategory":2,"la1":30.2992,"la2":30.254,"lo1":-89.0895,"lo2":-89.0443,"dy":0.0025,"dx":0.0025,"nx":19,"ny":19,"refTime":"2026-03-29T09:00:00:Z","depth":"4","parameterNumber":2,"parameterNumberName":"U-component_of_CURRENTS"},"data":[0,0,0,-0.0602,-0.0603,-0.0654,-0.0655,-0.0648,-0.0648,0,0,0,0,0,0,0,0,0,0,0,-0.0597,-0.0598,-0.0602,-0.0603,-0.0654,-0.0655,-0.0649,-0.0648,0,0,0,0,0,0,0,0,0,0,0,-0.0597,-0.0598,-0.0598,-0.0603,-0.0654,-0.0655,-0.0649,-0.0633,0,0,0,0,0,0,0,0,0,0,-0.0594,-0.0599,-0.0598,-0.0598,-0.0603,-0.0654,-0.0655,-0.0633,-0.0634,-0.0597,0,-0.0603,0,-0.0607,-0.0644,-0.0644,0,0,0,-0.0625,-0.0599,-0.0598,-0.0598,-0.0603,-0.0654,-0.0637,-0.0634,-0.0635,-0.0597,-0.0603,-0.0603,-0.0607,-0.0643,-0.0643,-0.0637,-0.0638,0,0,-0.0622,-0.062,-0.0598,-0.0599,-0.061,-0.0635,-0.0639,-0.0636,-0.064,-0.0603,-0.0603,-0.0606,-0.0643,-0.0642,-0.0637,-0.0638,0,0,0,-0.0599,-0.0618,-0.062,-0.0599,-0.0604,-0.0636,-0.064,-0.0641,-0.0638,-0.0603,-0.0606,-0.0643,-0.0642,-0.0637,-0.0637,-0.096,0,0,0,-0.0598,-0.0602,-0.0619,-0.062,-0.0604,-0.0633,-0.0645,-0.0639,-0.0638,-0.0606,-0.0643,-0.0641,-0.0636,-0.0637,-0.0951,-0.097,0,0,0,-0.0596,-0.0602,-0.0604,-0.0619,-0.0629,-0.0634,-0.0633,-0.064,-0.0638,-0.0644,-0.0641,-0.0636,-0.0637,-0.0942,-0.0957,-0.0891,0,0,0,-0.0598,-0.0591,-0.0604,-0.0585,-0.0628,-0.0648,-0.0633,-0.0665,-0.0676,-0.0642,-0.0636,-0.0637,-0.094,-0.095,-0.0886,-0.0681,0,0,0,-0.0585,-0.059,-0.0573,-0.0584,-0.0602,-0.0643,-0.0746,-0.0762,-0.0674,-0.0634,-0.0635,-0.0954,-0.0956,-0.089,-0.0737,0,0,0,0,-0.0564,-0.057,-0.0566,-0.0585,-0.06,-0.0749,-0.0782,-0.0837,-0.0905,-0.0679,-0.0882,-0.0868,-0.0818,-0.0682,-0.0642,-0.0642,-0.0642,-0.0642,-0.0641,-0.0597,-0.0589,-0.0622,-0.0669,-0.0728,-0.0836,-0.0969,-0.104,-0.0981,-0.1082,-0.1087,-0.1176,-0.1052,-0.109,-0.1091,-0.1093,-0.1094,-0.1095,-0.1096,-0.0629,-0.0679,-0.0736,-0.0789,-0.0934,-0.106,-0.1246,-0.1296,-0.1373,-0.1327,-0.1266,-0.0978,-0.1126,-0.112,-0.1115,-0.1112,-0.1109,-0.1107,-0.1106,-0.0703,-0.0742,-0.0781,-0.0911,-0.1084,-0.1237,-0.1361,-0.1462,-0.1544,-0.1573,-0.121,-0.1272,-0.1286,-0.149,-0.149,-0.149,-0.149,-0.149,-0.149,-0.0793,-0.0827,-0.0895,-0.1032,-0.1116,-0.126,-0.1386,-0.1436,-0.148,-0.1409,-0.1547,-0.1302,-0.1289,-0.1297,-0.1489,-0.1489,-0.1489,-0.1489,-0.1489,-0.0853,-0.0886,-0.0925,-0.0989,-0.1103,-0.1152,-0.1294,-0.1284,-0.1256,-0.1208,-0.1287,-0.1297,-0.109,-0.1078,-0.1072,-0.1204,-0.1202,-0.12,0,-0.0895,-0.092,-0.0911,-0.0922,-0.0967,-0.1068,-0.1037,-0.1073,-0.1104,-0.1073,-0.1237,-0.1326,-0.1332,-0.1095,-0.1082,-0.1072,0,0,0,-0.0901,-0.0892,-0.0857,-0.0866,-0.0876,-0.0914,-0.1014,-0.0981,-0.1122,-0.1058,-0.1148,-0.1161,-0.1359,-0.1485,-0.1183,-0.1168,-0.1159,0,0]},{"header":{"parameterUnit":"m.s-1","parameterCategory":2,"la1":30.2992,"la2":30.254,"lo1":-89.0895,"lo2":-89.0443,"dy":0.0025,"dx":0.0025,"nx":19,"ny":19,"refTime":"2026-03-29T09:00:00:Z","depth":"4","parameterNumber":3,"parameterNumberName":"V-component_of_CURRENTS"},"data":[0,0,0,-0.0142,-0.0141,-0.0089,-0.0088,-0.0065,-0.0065,0,0,0,0,0,0,0,0,0,0,0,-0.0161,-0.016,-0.0142,-0.0141,-0.0089,-0.0088,-0.0065,-0.0065,0,0,0,0,0,0,0,0,0,0,0,-0.0161,-0.0161,-0.016,-0.0141,-0.0089,-0.0088,-0.0065,-0.0094,0,0,0,0,0,0,0,0,0,0,-0.014,-0.0155,-0.0161,-0.016,-0.014,-0.0089,-0.0088,-0.0095,-0.0092,-0.01,0,-0.0088,0,-0.0075,-0.0064,-0.0064,0,0,0,-0.0144,-0.0157,-0.0137,-0.016,-0.014,-0.0089,-0.0113,-0.0093,-0.009,-0.0097,-0.0087,-0.0086,-0.0075,-0.0064,-0.0064,0.0056,0.0058,0,0,-0.0147,-0.0159,-0.0139,-0.0135,-0.0121,-0.0115,-0.0111,-0.0091,-0.009,-0.0087,-0.0085,-0.0074,-0.0064,-0.0064,0.0055,0.0057,0,0,0,-0.0153,-0.0161,-0.014,-0.0137,-0.0123,-0.0113,-0.0109,-0.0091,-0.0083,-0.0085,-0.0074,-0.0064,-0.0064,0.0054,0.0056,-0.0023,0,0,0,-0.0155,-0.0164,-0.0142,-0.015,-0.0123,-0.0102,-0.011,-0.0084,-0.0081,-0.0074,-0.0064,-0.0063,0.0053,0.0055,-0.0024,-0.0078,0,0,0,-0.0164,-0.0165,-0.0156,-0.015,-0.0125,-0.0101,-0.0092,-0.0083,-0.0075,-0.0064,-0.0063,0.0052,0.0054,-0.0024,-0.0078,-0.0095,0,0,0,-0.0183,-0.0129,-0.0156,-0.009,-0.0126,-0.0018,-0.0092,-0.0032,-0.0011,-0.0064,0.0053,0.0056,-0.0025,-0.0077,-0.0094,-0.0126,0,0,0,-0.0115,-0.0122,-0.0078,-0.01,-0.0027,-0.0026,0.0038,0.0013,0.0028,0.0039,0.0042,-0.0023,-0.0078,-0.0095,0.0049,0,0,0,0,-0.0055,-0.004,-0.001,0.0011,0.0072,0.0042,0.0078,0.0073,0.0061,0.0053,0.0059,0.0029,0.0018,0.0008,0.007,0.0069,0.0069,0.0069,0.0068,-0.0048,-0.0015,0.0015,0.0045,0.0083,0.0109,0.0097,0.0094,0.0125,0.012,0.0025,0.0041,0.0037,0.0109,0.0109,0.0109,0.0108,0.0108,0.0108,-0.0029,-0.0054,-0.0044,-0.0013,-0.0037,-0.0006,0.0025,0.0032,0.0032,0.0056,0.0051,0.0004,0.0102,0.0104,0.0104,0.0105,0.0106,0.0106,0.0106,-0.01,-0.0118,-0.01,-0.0133,-0.0175,-0.0147,-0.018,-0.0122,-0.0063,-0.0071,-0.0057,0.0,-0.0066,-0.0069,-0.007,-0.007,-0.007,-0.007,-0.0071,-0.0226,-0.0201,-0.0246,-0.0265,-0.0307,-0.034,-0.0288,-0.0257,-0.0183,-0.0141,-0.0095,-0.0018,-0.0013,-0.0072,-0.0075,-0.0074,-0.0074,-0.0073,-0.0073,-0.0324,-0.0333,-0.0376,-0.0415,-0.0473,-0.0472,-0.0421,-0.0327,-0.0299,-0.0255,-0.0162,-0.0156,-0.0137,-0.0128,-0.0192,-0.0232,-0.0232,-0.0233,0,-0.0429,-0.0428,-0.0491,-0.0539,-0.0587,-0.0544,-0.0496,-0.0429,-0.0326,-0.0324,-0.0309,-0.0209,-0.0202,-0.0184,-0.0176,-0.0252,0,0,0,-0.0514,-0.0512,-0.0571,-0.0591,-0.0625,-0.0542,-0.0478,-0.0442,-0.0342,-0.0299,-0.0245,-0.0242,-0.0163,-0.0088,-0.0045,-0.0038,-0.0131,0,0]}]]